Brookings, OR

12:39 PM PDT on July 24, 2017 (GMT -0700)
Brookings State

Weather History for KBOK - March, 2013

Change the Weather History Date:

Saturday, March 30, 2013

  Actual Average Record
Temperature  
Mean Temperature 58 °F -  
Max Temperature 65 °F 59 °F 76 °F (1987)
Min Temperature 50 °F 42 °F 32 °F (1938)
Degree Days  
Heating Degree Days 8    
Growing Degree Days 8 (Base 50)    
Moisture  
Dew Point 54 °F    
Average Humidity 93    
Maximum Humidity 100    
Minimum Humidity 57    
Precipitation  
Precipitation 0.00 in - - ()
Sea Level Pressure  
Sea Level Pressure 30.06 in    
Wind  
Wind Speed 4 mph (SE)    
Max Wind Speed 13 mph    
Max Gust Speed -    
Visibility 10 miles    
Events Rain    
Averages and records for this station are not official NWS values.
T = Trace of Precipitation, MM = Missing Value Source: NWS Daily Summary

Daily Weather History Graph

Daily Weather History Graph

Search for Another Location

Airport or City:

Trip Planner

Search our weather history database for the weather conditions in past years. The results will help you decide how hot, cold, wet, or windy it might be!

Date:

Astronomy

Mar. 30, 2013 Rise Set
Actual Time 7:02 AM PDT 7:40 PM PDT
Civil Twilight 6:34 AM PDT 8:09 PM PDT
Nautical Twilight 6:01 AM PDT 8:42 PM PDT
Astronomical Twilight 5:26 AM PDT 9:16 PM PDT
Moon 11:58 PM PDT (3/30) 8:58 AM PDT (3/30)
Length of Visible Light 13h 34m
Length of Day
12h 38m
Waning Gibbous, 85% of the Moon is Illuminated
Mar 30
Waning Gibbous
Apr 2
Last Quarter
Apr 10
New
Apr 18
First Quarter
Apr 25
Full

Hourly Weather History & Observations

Time (PDT) Temp. Dew Point Humidity Pressure Visibility Wind Dir Wind Speed Gust Speed Precip Events Conditions
12:56 AM 57.9 °F 56.8 °F 96% 30.05 in 10.0 mi Calm Calm - N/A   Clear
1:56 AM 54.9 °F 54.9 °F 100% 30.04 in 10.0 mi Calm Calm - N/A   Clear
2:56 AM 54.9 °F 54.9 °F 100% 30.04 in 10.0 mi Calm Calm - N/A   Clear
3:56 AM 65.8 °F 50.0 °F 57% 30.02 in 10.0 mi ENE 8.1 mph - N/A   Clear
4:56 AM 65.8 °F 50.0 °F 57% 30.01 in 10.0 mi ENE 6.9 mph - N/A   Clear
5:56 AM 55.9 °F 54.9 °F 96% 30.01 in 10.0 mi Variable 3.5 mph - N/A   Clear
6:56 AM 54.0 °F 54.0 °F 100% 30.02 in 10.0 mi Variable 5.8 mph - N/A   Clear
7:56 AM 55.9 °F 54.0 °F 93% 30.04 in 10.0 mi SE 5.8 mph - N/A   Clear
8:56 AM 59.9 °F 54.9 °F 83% 30.04 in 10.0 mi SSE 5.8 mph - N/A   Clear
9:56 AM 59.0 °F 55.9 °F 90% 30.04 in 10.0 mi SE 4.6 mph - N/A   Clear
10:56 AM 63.9 °F 56.8 °F 78% 30.03 in 10.0 mi WSW 4.6 mph - N/A   Clear
11:56 AM 61.0 °F 55.9 °F 83% 30.05 in 10.0 mi Variable 3.5 mph - N/A   Scattered Clouds
12:56 PM 59.0 °F 55.9 °F 90% 30.07 in 10.0 mi South 8.1 mph - N/A   Clear
1:56 PM 56.8 °F 55.9 °F 97% 30.07 in 10.0 mi Variable 4.6 mph - N/A   Clear
2:56 PM 57.9 °F 55.9 °F 93% 30.04 in 10.0 mi Variable 4.6 mph - N/A   Clear
3:56 PM 56.8 °F 55.9 °F 97% 30.04 in 10.0 mi South 5.8 mph - N/A   Partly Cloudy
4:22 PM 53.6 °F 53.6 °F 100% 30.07 in 10.0 mi South 12.7 mph - N/A   Mostly Cloudy
4:26 PM 53.6 °F 53.6 °F 100% 30.07 in 10.0 mi SSE 11.5 mph - N/A   Mostly Cloudy
4:41 PM 53.6 °F 53.6 °F 100% 30.07 in 10.0 mi SSE 9.2 mph - N/A   Overcast
4:56 PM 52.0 °F 52.0 °F 100% 30.08 in 9.0 mi South 8.1 mph - N/A   Overcast
5:56 PM 52.0 °F 52.0 °F 100% 30.09 in 10.0 mi SE 6.9 mph - N/A   Overcast
6:19 PM 53.6 °F 53.6 °F 100% 30.07 in 10.0 mi SE 4.6 mph - N/A   Scattered Clouds
6:56 PM 52.9 °F 52.9 °F 100% 30.08 in 10.0 mi Variable 5.8 mph - N/A   Clear
7:44 PM 51.8 °F 51.8 °F 100% 30.10 in 10.0 mi Variable 5.8 mph - N/A   Mostly Cloudy
7:56 PM 50.9 °F 50.9 °F 100% 30.10 in 10.0 mi ESE 4.6 mph - N/A   Mostly Cloudy
8:21 PM 51.8 °F 51.8 °F 100% 30.10 in 10.0 mi Variable 4.6 mph - N/A   Mostly Cloudy
8:56 PM 54.9 °F 52.0 °F 90% 30.07 in 10.0 mi NE 9.2 mph - 0.00 in Rain Light Rain
9:56 PM 55.9 °F 52.9 °F 89% 30.06 in 10.0 mi NE 4.6 mph - 0.00 in   Overcast
10:56 PM 55.9 °F 54.9 °F 96% 30.05 in 10.0 mi NNW 4.6 mph - 0.00 in   Mostly Cloudy
11:56 PM 55.9 °F 54.9 °F 96% 30.04 in 10.0 mi Variable 4.6 mph - 0.00 in   Partly Cloudy